AEROCUBE 7B (43042 NORAD) Tracking and Keplerian Element Data

This shows tracking and keplerian element data for the satellite.

Feedback or suggestion? Click here.




ElementValue
Catalog43042
NameAEROCUBE 7B
Epoch Orbit3429
Epoch Day198.64053751
Epoch Year2018
RAAN253.1393
Inclination51.6382
Eccentricity0.0005316
Argument of Perigee19.4843
Mean Anonmoly340.6343
Mean Motion15.39033003
Decay Rate2.269E-05
L11 43042U 17071F 18198.64053751 .00002269 00000-0 67917-4 0 9990
L22 43042 51.6382 253.1393 0005316 19.4843 340.6343 15.39033003 34298

Live tracking and technical data element details for AEROCUBE 7B (NORAD 43042). AEROCUBE 7B can be tracked NOW for your location showing map with azimuth and elevation plus other details from your city location.

Track the satellite on the map from your city or location and see movement details for azimuth, elevation, latitude, longitude, range, height, and movement on the map or in text.







IsCatalogInMostPopularTable: catalog: 43042, numindb: 107
Update: records affected: 1



GetName: 43042 AEROCUBE 7B

Hit Count: updated at: Thu, 19 Jul 2018 21:24:02 GMT